Wind_Speed
46 45 44 43 42 42 41 40 39 39 39 39 38 38 38 38 38 38 38 38 37 37 37 36 35 35 35 34 35 35 33 32 32 32 31 31 31 31 31 31 31 31 30
47 46 45 44 43 42 42 40 40 40 39 39 39 39 38 38 38 38 39 39 39 38 37 37 36 36 36 35 35 35 35 34 33 33 32 32 32 32 32 32 32 32 32
47 47 46 45 44 43 42 41 40 40 40 40 40 40 39 39 38 38 38 39 39 39 39 38 37 37 36 36 35 35 35 35 35 34 34 33 33 33 33 33 34 33 33
47 47 46 45 44 43 42 42 41 41 41 41 41 40 39 39 39 39 39 39 40 39 39 39 38 38 37 36 36 35 35 35 35 35 36 35 35 35 34 34 34 35 34
48 47 46 45 45 44 43 43 42 42 42 42 41 41 40 40 40 40 39 39 39 40 40 40 39 38 37 37 37 36 36 36 36 36 37 37 37 36 36 35 35 35 35
48 47 47 46 46 45 44 44 43 43 42 42 42 41 41 40 40 41 40 39 39 40 41 40 39 38 38 37 37 37 37 37 37 37 38 38 38 37 38 38 37 37 37
47 47 47 47 46 46 45 45 44 43 43 42 42 41 41 41 41 40 40 40 40 40 41 40 39 39 38 38 38 38 37 37 37 37 38 39 38 38 39 40 40 39 38
46 46 46 46 45 45 44 45 45 44 43 42 42 42 41 41 41 40 40 40 41 40 41 41 40 39 39 39 39 39 38 38 38 38 39 39 40 40 40 40 40 40 39
45 45 45 45 45 44 44 43 44 44 43 43 43 42 41 41 41 40 40 40 40 40 40 40 40 40 40 39 39 39 38 39 39 39 39 39 40 42 41 41 41 41 41
45 45 44 45 45 45 44 44 44 44 43 43 42 42 41 41 41 41 41 41 40 40 41 41 40 40 40 40 40 40 40 40 40 40 40 40 41 42 43 43 42 43 44
43 43 43 43 44 44 44 44 44 44 43 43 43 42 41 41 40 40 40 40 40 40 40 41 41 41 41 41 41 41 41 41 41 40 40 41 41 42 43 44 43 43 44
42 43 42 43 43 43 43 44 45 44 43 43 43 43 43 42 41 40 40 40 40 40 40 40 41 42 42 43 42 42 42 42 42 42 41 41 42 43 43 43 43 43 43
43 42 42 43 42 42 43 43 44 44 44 44 44 43 43 43 42 42 41 41 41 41 41 41 41 41 42 43 44 44 43 43 42 42 42 42 42 42 43 44 44 43 43
40 42 43 44 43 42 42 43 43 43 43 44 44 44 44 43 43 43 42 42 42 42 42 42 42 42 42 42 43 44 44 43 43 43 42 43 43 43 44 43 43 43 44
39 40 41 43 43 42 42 43 43 43 43 44 44 44 44 44 44 43 43 42 42 42 42 43 43 43 43 43 44 44 44 44 44 44 45 44 44 44 44 44 44 44 44
38 40 40 40 41 42 42 42 43 43 43 43 44 43 44 44 44 44 44 44 43 42 42 43 43 44 44 45 45 45 45 45 45 44 45 45 45 45 44 44 44 44 43
37 39 41 40 40 41 42 42 42 43 44 43 43 43 44 44 45 45 45 45 45 44 44 43 44 44 44 44 45 46 46 47 46 46 46 45 45 45 44 44 44 44 44
36 37 38 39 39 40 41 41 42 42 43 44 44 44 43 43 44 45 46 46 46 46 46 45 44 45 45 45 45 46 46 46 46 46 46 46 45 45 44 44 45 45 45
34 35 36 37 38 39 40 40 40 41 42 43 43 43 44 44 44 44 45 45 46 46 46 45 45 44 45 45 45 45 45 44 43 43 44 44 45 45 45 45 45 45 45
32 34 35 36 36 38 39 40 40 40 40 41 42 42 43 44 45 45 45 45 45 45 45 46 46 45 45 45 45 44 44 43 43 42 42 43 43 44 45 45 45 45 45
32 33 34 35 35 36 37 38 39 39 40 40 40 41 43 44 45 45 45 45 45 44 44 45 45 45 45 45 45 44 44 43 43 42 43 43 43 43 44 44 44 44 44
30 32 33 34 35 35 35 36 36 37 38 38 39 39 40 41 43 43 43 43 43 43 43 44 44 44 44 44 43 43 43 43 43 43 43 42 42 42 43 43 44 44 44
28 30 31 32 34 34 35 35 35 35 35 36 37 38 39 39 40 41 41 41 41 42 42 43 43 43 43 43 43 43 44 44 43 42 42 41 41 42 42 43 44 45 45
27 28 29 30 31 33 34 35 35 35 35 35 35 37 38 38 39 39 40 40 40 41 42 42 42 43 43 43 43 43 43 43 42 42 42 42 41 41 41 42 43 44 45
27 27 27 28 30 31 33 34 35 35 35 34 34 35 36 37 37 38 38 39 40 41 41 41 41 41 42 42 42 42 42 42 41 41 41 41 42 41 42 42 43 43 44
26 27 27 27 27 29 31 33 34 34 35 35 34 34 35 35 36 37 38 38 39 40 41 41 41 41 41 42 42 41 41 41 41 41 42 42 42 42 42 43 43 43 44
Wind_Direction
234 235 236 236 237 238 238 239 238 238 239 240 241 242 243 243 243 243 244 245 245 247 247 249 250 250 250 249 249 250 250 251 251 252 254 255 256 257 258 259 261 262 262
232 233 235 236 237 238 238 238 238 237 238 239 240 241 242 243 243 243 244 245 245 246 247 249 250 250 249 249 249 249 250 251 252 253 254 255 255 256 257 259 261 262 263
231 232 233 235 236 237 237 236 237 237 237 238 239 241 242 242 243 243 244 245 245 245 247 248 249 249 249 249 248 249 250 251 251 252 254 256 256 255 257 259 262 263 264
230 231 232 233 234 236 236 236 236 236 237 238 239 240 242 243 243 242 243 244 245 246 246 247 247 247 248 247 247 249 251 251 251 253 254 256 257 256 256 259 261 263 264
230 230 231 232 233 234 235 235 236 237 237 238 239 240 242 243 243 243 244 245 245 246 247 247 246 246 247 247 248 249 250 251 252 252 254 255 256 257 257 259 261 263 264
230 230 230 231 232 233 234 234 235 236 237 238 239 241 242 243 243 244 245 246 246 246 247 247 245 245 247 248 248 249 250 251 252 253 254 255 256 257 258 259 261 263 264
230 230 229 230 232 233 234 234 235 236 237 238 239 241 242 242 242 243 245 246 247 247 245 244 244 244 246 247 248 249 250 252 253 255 255 255 255 257 259 261 262 263 265
229 229 229 229 230 232 233 234 235 236 237 238 239 240 242 243 243 243 244 245 247 247 245 243 243 244 245 246 248 250 251 252 254 255 256 256 256 257 261 262 264 265 266
229 229 229 229 230 231 233 234 234 235 236 238 239 240 241 242 243 243 244 244 245 245 244 242 242 243 245 247 249 251 251 252 254 256 256 257 257 259 261 263 265 266 267
230 230 230 230 231 231 233 234 234 235 236 238 238 239 239 241 241 242 244 244 245 244 243 243 244 244 246 248 250 251 252 253 255 257 257 257 258 260 262 265 266 267 268
229 230 231 231 232 232 232 233 234 235 236 238 238 238 239 240 242 242 244 245 244 244 244 244 244 244 247 249 250 251 252 254 256 257 257 258 259 261 264 266 268 268 269
229 229 229 231 232 232 233 233 234 236 237 238 238 239 240 240 241 242 243 243 243 243 244 245 246 246 247 248 251 252 253 256 257 257 258 259 260 261 264 266 268 268 269
228 228 229 230 231 232 233 234 234 235 236 238 238 238 240 240 240 241 243 243 243 244 245 245 246 247 248 250 251 253 254 256 257 257 258 260 260 262 263 265 267 268 268
230 229 229 230 231 232 234 235 235 235 236 237 238 239 239 240 240 241 242 243 244 245 245 245 246 248 249 251 252 253 255 255 256 257 258 260 262 263 265 266 268 269 269
232 231 231 232 233 233 235 235 236 236 237 237 237 238 239 239 240 241 242 243 244 245 246 247 247 248 250 252 253 254 256 256 257 258 258 260 261 263 264 265 267 268 269
233 234 234 233 235 235 235 237 237 237 238 238 238 239 239 239 240 241 242 243 244 245 247 249 249 250 251 253 254 255 256 256 258 258 259 260 261 263 264 265 267 268 270
236 235 236 236 236 237 237 237 238 238 239 239 239 239 239 240 241 242 242 243 245 246 248 249 251 251 252 254 254 255 256 257 258 259 259 260 262 263 264 265 266 268 269
238 237 237 237 236 236 237 238 239 239 240 240 240 240 240 241 241 242 243 244 245 246 248 250 251 251 252 254 255 256 256 257 258 259 260 261 263 264 264 265 267 268 269
239 239 238 238 237 236 236 237 238 239 240 241 240 240 240 241 242 242 243 245 246 247 248 249 251 251 252 253 255 256 257 258 259 261 261 262 263 264 265 266 266 267 268
239 239 239 239 239 238 237 237 238 239 241 242 241 241 241 242 242 243 244 244 246 247 247 248 250 252 252 253 255 257 258 258 260 261 262 262 263 264 265 265 266 267 269
238 239 240 240 240 239 238 237 238 240 241 242 243 243 243 243 243 243 244 244 245 246 247 248 250 251 252 254 255 257 259 259 260 261 261 262 263 264 265 266 267 268 270
239 239 239 239 240 240 239 239 239 240 241 243 243 243 244 244 244 244 244 244 245 246 247 248 249 250 252 253 255 257 258 259 260 261 262 262 263 264 265 267 268 269 270
242 242 240 240 240 240 239 238 238 238 239 241 242 243 244 244 245 244 243 244 245 246 247 248 249 250 251 253 255 257 259 260 261 262 263 264 264 265 267 268 269 270 270
242 242 242 241 240 239 239 238 238 238 239 240 240 241 243 243 244 244 244 245 246 248 248 249 250 250 252 254 255 256 258 259 261 262 264 265 265 266 267 268 269 270 271
242 242 243 243 241 239 238 239 239 239 239 241 242 243 242 243 244 244 245 246 247 248 248 249 250 251 252 254 254 256 257 258 260 262 263 264 265 266 268 269 270 272 273
244 243 243 242 241 240 239 239 239 240 241 243 244 245 244 243 244 244 245 246 248 249 249 249 251 252 253 253 254 255 257 258 260 261 262 264 265 267 268 270 272 274 275
Height
5713 5718 5722 5727 5732 5736 5740 5744 5748 5751 5755 5759 5762 5765 5769 5772 5775 5779 5782 5785 5788 5790 5793 5795 5798 5800 5802 5804 5807 5809 5811 5813 5815 5817 5818 5819 5821 5822 5823 5824 5824 5825 5826
5702 5707 5712 5717 5722 5727 5731 5735 5739 5743 5746 5750 5754 5757 5760 5763 5767 5770 5773 5776 5779 5782 5785 5787 5789 5792 5794 5796 5799 5801 5803 5806 5807 5809 5811 5812 5814 5815 5816 5817 5818 5818 5819
5691 5697 5702 5707 5712 5717 5721 5726 5730 5734 5738 5741 5745 5748 5751 5755 5758 5761 5765 5768 5770 5773 5776 5778 5781 5783 5786 5788 5791 5793 5796 5798 5800 5802 5804 5805 5807 5808 5809 5810 5811 5811 5812
5680 5686 5692 5697 5702 5707 5712 5716 5720 5724 5728 5732 5736 5739 5743 5746 5750 5753 5756 5759 5762 5764 5767 5769 5772 5774 5777 5780 5782 5785 5787 5790 5792 5794 5796 5798 5799 5800 5801 5803 5803 5803 5804
5670 5676 5682 5687 5692 5697 5702 5706 5711 5715 5719 5723 5727 5731 5734 5737 5740 5743 5746 5749 5752 5755 5757 5760 5763 5766 5769 5771 5774 5777 5779 5781 5784 5786 5787 5789 5791 5792 5793 5795 5795 5796 5796
5659 5666 5671 5677 5682 5687 5692 5697 5701 5705 5710 5714 5718 5721 5725 5728 5731 5734 5737 5740 5743 5746 5748 5750 5754 5757 5760 5763 5766 5768 5771 5773 5775 5777 5779 5781 5782 5783 5784 5786 5787 5787 5788
5648 5655 5661 5667 5672 5677 5682 5687 5692 5696 5700 5704 5708 5712 5715 5719 5722 5725 5728 5731 5734 5736 5739 5742 5745 5748 5751 5754 5757 5760 5762 5764 5767 5769 5771 5772 5773 5775 5776 5777 5777 5778 5779
5638 5644 5651 5657 5662 5667 5672 5677 5682 5686 5691 5695 5699 5703 5706 5710 5713 5716 5719 5722 5725 5727 5730 5733 5736 5739 5742 5745 5748 5751 5753 5756 5758 5760 5761 5763 5764 5765 5766 5767 5768 5768 5769
5628 5635 5641 5646 5652 5657 5663 5668 5672 5677 5681 5685 5689 5693 5697 5700 5704 5707 5710 5713 5715 5718 5721 5724 5727 5731 5734 5737 5739 5742 5744 5747 5749 5750 5752 5753 5755 5756 5757 5758 5758 5759 5759
5619 5625 5631 5636 5642 5647 5653 5658 5662 5667 5671 5675 5680 5684 5687 5691 5694 5698 5701 5704 5706 5709 5712 5715 5719 5722 5725 5728 5730 5733 5735 5737 5739 5741 5742 5744 5745 5746 5747 5748 5748 5748 5748
5609 5615 5621 5626 5632 5637 5642 5647 5652 5657 5661 5666 5670 5674 5678 5682 5685 5688 5691 5694 5697 5700 5703 5706 5709 5712 5715 5718 5721 5724 5726 5728 5730 5731 5733 5734 5735 5736 5737 5737 5737 5737 5737
5600 5606 5611 5616 5622 5627 5632 5637 5642 5647 5651 5655 5660 5664 5668 5671 5675 5679 5682 5685 5688 5691 5694 5697 5700 5703 5706 5709 5711 5714 5716 5718 5720 5721 5723 5724 5725 5726 5726 5727 5727 5727 5727
5591 5596 5602 5607 5612 5617 5622 5627 5632 5636 5641 5645 5649 5654 5658 5662 5666 5669 5672 5675 5679 5681 5684 5687 5691 5693 5696 5698 5701 5703 5706 5708 5709 5711 5712 5713 5714 5715 5716 5716 5716 5716 5716
5581 5587 5592 5597 5602 5607 5612 5617 5621 5626 5630 5634 5639 5643 5648 5652 5655 5659 5662 5666 5669 5672 5675 5678 5681 5684 5686 5689 5691 5693 5695 5697 5699 5700 5702 5703 5704 5704 5705 5705 5705 5705 5705
5572 5577 5582 5588 5593 5597 5602 5606 5611 5615 5619 5624 5628 5633 5637 5641 5645 5649 5652 5656 5659 5662 5665 5667 5670 5673 5676 5678 5680 5682 5684 5686 5688 5689 5691 5692 5693 5693 5694 5694 5694 5694 5694
5564 5568 5573 5578 5583 5587 5592 5596 5600 5605 5609 5613 5618 5622 5626 5630 5634 5638 5642 5645 5648 5651 5654 5657 5660 5662 5665 5667 5669 5671 5673 5675 5677 5678 5679 5680 5681 5682 5682 5682 5683 5683 5683
5555 5559 5564 5568 5573 5577 5582 5586 5590 5594 5598 5603 5607 5611 5615 5619 5623 5627 5631 5634 5638 5641 5643 5646 5649 5651 5653 5655 5657 5659 5661 5663 5665 5666 5667 5668 5669 5670 5670 5671 5671 5671 5671
5546 5550 5554 5559 5563 5567 5572 5576 5580 5584 5588 5592 5596 5600 5604 5608 5612 5616 5619 5623 5626 5629 5632 5635 5637 5640 5642 5644 5645 5647 5649 5651 5652 5654 5655 5656 5657 5657 5658 5658 5659 5659 5659
5538 5541 5545 5549 5553 5557 5562 5566 5570 5573 5577 5581 5585 5589 5593 5597 5601 5604 5608 5611 5614 5617 5620 5623 5626 5628 5630 5632 5634 5636 5637 5639 5641 5642 5643 5644 5645 5646 5646 5646 5647 5647 5647
5529 5533 5536 5539 5543 5547 5551 5556 5560 5563 5567 5570 5574 5578 5582 5585 5589 5593 5596 5599 5602 5606 5609 5612 5614 5617 5619 5621 5623 5624 5626 5628 5630 5631 5631 5632 5633 5633 5633 5633 5633 5634 5634
5521 5524 5527 5530 5534 5537 5541 5545 5549 5553 5556 5560 5563 5567 5571 5574 5578 5581 5585 5588 5591 5594 5597 5600 5603 5605 5608 5609 5611 5613 5615 5616 5618 5619 5619 5620 5620 5621 5621 5621 5621 5621 5621
5512 5515 5518 5521 5524 5528 5532 5535 5539 5543 5546 5550 5553 5556 5560 5563 5567 5570 5573 5576 5580 5583 5586 5589 5591 5594 5596 5598 5600 5602 5603 5605 5606 5607 5608 5608 5609 5609 5609 5609 5609 5608 5608
5504 5506 5509 5512 5515 5518 5522 5526 5529 5533 5536 5540 5543 5546 5549 5552 5555 5559 5562 5565 5568 5571 5574 5577 5580 5583 5585 5587 5589 5590 5592 5593 5594 5595 5596 5596 5597 5597 5597 5597 5597 5596 5596
5497 5499 5501 5503 5506 5509 5513 5516 5520 5523 5527 5530 5533 5536 5539 5542 5545 5548 5551 5554 5557 5560 5563 5566 5569 5571 5574 5576 5577 5579 5580 5582 5583 5584 5584 5585 5585 5586 5586 5585 5585 5584 5584
5489 5491 5493 5495 5498 5500 5503 5507 5510 5514 5517 5520 5523 5526 5529 5531 5534 5537 5540 5543 5547 5549 5552 5555 5557 5560 5562 5564 5566 5567 5569 5570 5571 5572 5573 5574 5574 5574 5574 5574 5573 5572 5572
5481 5483 5485 5487 5489 5492 5494 5498 5501 5504 5508 5511 5514 5516 5519 5521 5524 5527 5530 5532 5535 5538 5540 5543 5545 5548 5550 5552 5554 5556 5557 5558 5559 5561 5562 5562 5562 5562 5562 5562 5561 5560 5559